Date String (YYYY-MM-DD hh:mm:ss) UTC,Instrument flags,Ambient pressure (hPa),Sample flow (lpm),Bypass flow (lpm),Sample temperature (°C),Ambient temperature (°C),ASC tube jacket temperature (°C),LED temperature (°C),Box temperature (°C),Sample RH (%),Span deviation,Mass concentration (μg/m³),Mass concentration (μg/m³),Mass concentration (μg/m³)
DateTimeUTC,F1_M11,P_M11,Q1_M11,Q2_M11,T1_M11,T2_M11,T3_M11,T4_M11,T5_M11,U1_M11,ZSPAN_M11,X0_M11,X2_M11,X1_M11
2022-05-18 01:00:00,,0824.6,5.00,0.00,29.5,28.4,00.0,38.4,31.5,19.2,0000.0,0015.44,0004.68,0003.33
2022-05-18 01:01:00,,0824.6,5.00,0.00,29.6,28.5,00.0,38.4,31.5,19.1,0000.0,0015.36,0004.72,0003.36
2022-05-18 01:02:00,,0824.6,5.00,0.00,29.6,27.4,00.0,38.4,31.5,19.2,0000.0,0015.31,0004.74,0003.40
2022-05-18 01:03:00,,0824.6,5.00,0.00,29.5,25.5,00.0,38.3,31.4,19.1,0000.0,0014.89,0004.72,0003.43
2022-05-18 01:04:00,,0824.6,5.00,0.00,29.5,25.7,00.0,38.3,31.3,19.4,0000.0,0014.62,0004.72,0003.46
2022-05-18 01:05:00,,0824.6,5.01,0.00,29.5,26.1,00.0,38.3,31.2,19.5,0000.0,0014.05,0004.69,0003.48
2022-05-18 01:06:00,,0824.6,4.99,0.00,29.4,26.5,00.0,38.3,31.1,19.6,0000.0,0013.85,0004.67,0003.48
2022-05-18 01:07:00,,0824.6,5.00,0.00,29.4,26.9,00.0,38.4,31.2,19.5,0000.0,0013.52,0004.70,0003.48
2022-05-18 01:08:00,,0824.6,4.99,0.00,29.4,27.2,00.0,38.4,31.2,19.7,0000.0,0012.01,0004.72,0003.48
2022-05-18 01:09:00,,0824.6,5.01,0.00,29.4,27.5,00.0,38.4,31.3,19.5,0000.0,0012.35,0004.70,0003.48
2022-05-18 01:10:00,,0824.6,5.01,0.00,29.4,27.8,00.0,38.4,31.3,19.4,0000.0,0012.01,0004.67,0003.47
2022-05-18 01:11:00,,0824.6,4.99,0.00,29.5,28.0,00.0,38.4,31.3,19.3,0000.0,0011.61,0004.68,0003.46
2022-05-18 01:12:00,,0824.6,5.00,0.00,29.5,28.1,00.0,38.4,31.4,19.0,0000.0,0012.23,0004.61,0003.43
2022-05-18 01:13:00,,0824.6,5.01,0.00,29.5,28.3,00.0,38.4,31.4,18.9,0000.0,0012.61,0004.55,0003.39
2022-05-18 01:14:00,,0824.6,5.01,0.00,29.5,28.4,00.0,38.5,31.5,19.0,0000.0,0012.45,0004.51,0003.36
2022-05-18 01:15:00,,0824.6,5.00,0.00,29.6,28.5,00.0,38.5,31.5,18.9,0000.0,0013.20,0004.49,0003.33
2022-05-18 01:16:00,,0824.6,4.99,0.00,29.6,27.0,00.0,38.4,31.5,18.8,0000.0,0013.34,0004.49,0003.29
2022-05-18 01:17:00,,0824.6,5.01,0.00,29.5,25.5,00.0,38.4,31.3,18.7,0000.0,0013.67,0004.51,0003.26
2022-05-18 01:18:00,,0824.7,5.00,0.00,29.5,25.7,00.0,38.4,31.2,18.8,0000.0,0014.30,0004.44,0003.22
2022-05-18 01:19:00,,0824.9,4.99,0.00,29.4,26.1,00.0,38.4,31.1,18.9,0000.0,0014.01,0004.40,0003.19
2022-05-18 01:20:00,,0824.8,5.00,0.00,29.4,26.5,00.0,38.4,31.1,18.9,0000.0,0013.30,0004.41,0003.16
2022-05-18 01:21:00,,0824.9,5.00,0.00,29.4,26.9,00.0,38.4,31.2,19.0,0000.0,0013.25,0004.36,0003.14
2022-05-18 01:22:00,,0824.9,5.01,0.00,29.4,27.2,00.0,38.4,31.2,19.0,0000.0,0013.32,0004.34,0003.11
2022-05-18 01:23:00,,0824.9,4.99,0.00,29.4,27.5,00.0,38.4,31.3,18.8,0000.0,0012.91,0004.36,0003.08
2022-05-18 01:24:00,,0824.9,4.99,0.00,29.4,27.7,00.0,38.4,31.3,18.6,0000.0,0012.47,0004.39,0003.05
2022-05-18 01:25:00,,0824.9,5.00,0.00,29.4,28.0,00.0,38.4,31.3,18.7,0000.0,0012.67,0004.41,0003.02
2022-05-18 01:26:00,,0825.0,5.00,0.00,29.5,28.1,00.0,38.4,31.4,18.5,0000.0,0012.45,0004.38,0002.99
2022-05-18 01:27:00,,0825.0,5.00,0.00,29.5,28.3,00.0,38.4,31.4,18.4,0000.0,0012.52,0004.39,0003.01
2022-05-18 01:28:00,,0825.0,4.99,0.00,29.5,28.4,00.0,38.5,31.5,18.4,0000.0,0012.30,0004.35,0003.01
2022-05-18 01:29:00,,0825.1,4.99,0.00,29.6,28.4,00.0,38.5,31.5,18.3,0000.0,0011.51,0004.38,0003.01
2022-05-18 01:30:00,,0825.1,5.00,0.00,29.6,26.6,00.0,38.4,31.4,18.2,0000.0,0011.47,0004.40,0003.02
2022-05-18 01:31:00,,0825.1,5.00,0.00,29.5,25.3,00.0,38.4,31.3,18.2,0000.0,0012.81,0004.41,0003.04
2022-05-18 01:32:00,,0825.1,5.00,0.00,29.5,25.6,00.0,38.4,31.2,18.1,0000.0,0013.18,0004.43,0003.04
2022-05-18 01:33:00,,0825.1,5.00,0.00,29.4,26.0,00.0,38.4,31.1,18.2,0000.0,0013.51,0004.43,0003.06
2022-05-18 01:34:00,,0825.2,4.99,0.00,29.4,26.5,00.0,38.4,31.1,18.2,0000.0,0013.56,0004.48,0003.08
2022-05-18 01:35:00,,0825.2,5.01,0.00,29.4,26.8,00.0,38.4,31.1,18.2,0000.0,0013.71,0004.50,0003.10
2022-05-18 01:36:00,,0825.2,4.99,0.00,29.4,27.2,00.0,38.4,31.2,18.0,0000.0,0014.08,0004.47,0003.11
2022-05-18 01:37:00,,0825.2,5.00,0.00,29.4,27.5,00.0,38.4,31.2,18.1,0000.0,0013.85,0004.51,0003.11
2022-05-18 01:38:00,,0825.3,5.00,0.00,29.4,27.7,00.0,38.4,31.3,18.0,0000.0,0013.39,0004.47,0003.10
2022-05-18 01:39:00,,0825.3,5.00,0.00,29.4,27.9,00.0,38.4,31.3,17.8,0000.0,0013.10,0004.44,0003.09
2022-05-18 01:40:00,,0825.3,5.00,0.00,29.4,28.1,00.0,38.4,31.3,17.7,0000.0,0012.81,0004.38,0003.10
2022-05-18 01:41:00,,0825.3,5.00,0.00,29.5,28.2,00.0,38.4,31.4,17.7,0000.0,0012.99,0004.39,0003.11
2022-05-18 01:42:00,,0825.4,5.01,0.00,29.5,28.3,00.0,38.4,31.4,17.7,0000.0,0012.48,0004.37,0003.11
2022-05-18 01:43:00,,0825.4,5.00,0.00,29.5,28.4,00.0,38.5,31.5,17.7,0000.0,0012.14,0004.38,0003.10
2022-05-18 01:44:00,,0825.4,5.00,0.00,29.6,28.4,00.0,38.5,31.5,17.6,0000.0,0012.10,0004.39,0003.10
2022-05-18 01:45:00,,0825.4,4.99,0.00,29.6,26.5,00.0,38.4,31.4,17.7,0000.0,0011.95,0004.38,0003.11
2022-05-18 01:46:00,,0825.4,5.01,0.00,29.5,25.4,00.0,38.4,31.3,17.8,0000.0,0012.89,0004.34,0003.10
2022-05-18 01:47:00,,0825.4,4.99,0.00,29.5,25.7,00.0,38.4,31.2,17.8,0000.0,0013.31,0004.38,0003.10
2022-05-18 01:48:00,,0825.5,5.00,0.00,29.4,26.1,00.0,38.4,31.1,17.7,0000.0,0013.28,0004.38,0003.12
2022-05-18 01:49:00,,0825.5,5.00,0.00,29.4,26.5,00.0,38.4,31.1,17.7,0000.0,0013.49,0004.39,0003.13
2022-05-18 01:50:00,,0825.5,5.01,0.00,29.4,26.9,00.0,38.4,31.1,17.9,0000.0,0014.86,0004.42,0003.15
2022-05-18 01:51:00,,0825.5,5.00,0.00,29.4,27.2,00.0,38.4,31.2,17.9,0000.0,0015.70,0004.51,0003.17
2022-05-18 01:52:00,,0825.5,5.01,0.00,29.4,27.5,00.0,38.4,31.2,17.7,0000.0,0016.47,0004.52,0003.17
2022-05-18 01:53:00,,0825.5,5.01,0.00,29.4,27.7,00.0,38.4,31.3,17.7,0000.0,0016.39,0004.48,0003.17
2022-05-18 01:54:00,,0825.6,4.99,0.00,29.4,27.9,00.0,38.4,31.3,17.7,0000.0,0015.79,0004.43,0003.17
2022-05-18 01:55:00,,0825.5,5.00,0.00,29.4,28.1,00.0,38.4,31.3,17.8,0000.0,0015.35,0004.36,0003.15
2022-05-18 01:56:00,,0825.5,5.01,0.00,29.5,28.2,00.0,38.4,31.4,17.9,0000.0,0015.27,0004.30,0003.13
2022-05-18 01:57:00,,0825.5,5.00,0.00,29.5,28.4,00.0,38.4,31.4,18.0,0000.0,0015.29,0004.28,0003.13
2022-05-18 01:58:00,,0825.6,5.00,0.00,29.5,28.5,00.0,38.5,31.5,17.9,0000.0,0014.48,0004.21,0003.12
2022-05-18 01:59:00,,0825.6,5.00,0.00,29.6,28.6,00.0,38.5,31.5,17.9,0000.0,0014.22,0004.12,0003.10
